Terminal Aerodrome Forecast
Issued by NWS State College, PA

Home | Current Version | Previous Version | Text Only | Print | Product List | Glossary On
Versions: 1 2 3 4 5 6 7 8 9 10 11 12 13 14 15 16 17 18 19 20 21 22 23 24 25 26 27 28 29 30 31 32 33 34 35 36 37 38 39 40 41 42 43 44 45 46
000
FTUS41 KCTP 271156
TAFMDT
TAF
KMDT 271156Z 2712/2812 10005KT 5SM -RADZ BR OVC005
     FM271600 23004KT P6SM BKN010
     FM272000 26005KT P6SM SCT025 BKN050
     FM280000 12003KT P6SM OVC050
     FM280600 08003KT 5SM BR OVC025=

USA.gov is the U.S. government's official web portal to all federal, state and local government web resources and services.